Find Starlink 32354

NORAD ID: 61932 Int'l Des: 2024-207 Owner: SPXS Country: US Constellation: starlink operational
LEOCIRCULAR

Current View

Loading 3D Globe...

About Starlink 32354

Starlink 32354 (NORAD 61932) is a starlink constellation satellite (v2 mini) launched Nov 11, 2024 by SPXS of US. It operates in LEO, CIRCULAR orbit with a mass of 730.00 kg.

Upcoming Passes

Passes for default location (London). Set your location on the main map for personalized predictions.

Altitude History

Loading altitude history...

Two-Line Element Set

1 61932U 24207W 26262.72567521 .00014333 00000-0 52986-3 0 9996
2 61932 42.9998 269.7054 0001176 254.8993 105.1729 15.27549287104844
Epoch: Sep 19, 2026 • Age: 41 hours

Current Status

Altitude 492.6 km
Apogee / Perigee N/A
Velocity 7.62 km/s
Sub-Earth Point -35.56°S, 60.73°E
Launch Date Nov 11, 2024
Age 1.8 years
Type internet

Technical Details

Classification Payload
Mass 730.00 kg
Dry Mass 700.00 kg
Length 0.30 m
Span 29.00 m
Shape ? Box + pan
Manufacturer SPXS
Bus Type Starlink V2M
Phase Status In Orbit
Owner/State SPXS/US

Most Searched